Location: Contre
(49.7477°N, 2.0963°E)
Time: 13:00:20
(UTC+00:00)

CZ-4B DEB - Pass Details

Date: 03 February 2023
Orbit: 839 x 859 km, 99.1° (Epoch: 23 March)

Event Time Altitude Azimuth Distance (km) Brightness Sun altitude
Rises 17:47:02 0° 153° (SSE) 3,382 7.2 -9.6°
Reaches altitude 10° 17:49:23 10° 151° (SSE) 2,452 6.5 -9.9°
Maximum altitude 17:54:46 67° 70° (ENE) 914 4.2 -10.8°
Drops below altitude 10° 18:00:13 10° 349° (N) 2,477 6.6 -11.6°
Sets 18:02:36 0° 347° (NNW) 3,419 7.4 -12.0°
